Precipitable_Water
1.63 1.69 1.63 1.57 1.55 1.53 1.53 1.51 1.53 1.53 1.54 1.56 1.54 1.57 1.58 1.64 1.70 1.67 1.66 1.64 1.61 1.57 1.55 1.54 1.55 1.55 1.58 1.61 1.64 1.63 1.64 1.67 1.70 1.72 1.69 1.65 1.59 1.54 1.51 1.51 1.49 1.47
1.55 1.66 1.67 1.64 1.61 1.60 1.58 1.58 1.56 1.54 1.53 1.56 1.60 1.63 1.64 1.64 1.66 1.67 1.65 1.62 1.61 1.58 1.60 1.60 1.60 1.61 1.62 1.63 1.65 1.64 1.66 1.66 1.65 1.74 1.67 1.61 1.58 1.55 1.51 1.52 1.51 1.53
1.49 1.55 1.61 1.58 1.57 1.57 1.58 1.61 1.58 1.58 1.58 1.60 1.64 1.65 1.64 1.66 1.65 1.67 1.69 1.67 1.64 1.63 1.64 1.65 1.65 1.66 1.68 1.70 1.73 1.70 1.67 1.66 1.62 1.68 1.65 1.60 1.60 1.56 1.57 1.57 1.56 1.56
1.44 1.48 1.53 1.55 1.57 1.58 1.62 1.62 1.59 1.58 1.60 1.58 1.59 1.63 1.64 1.65 1.66 1.66 1.69 1.70 1.69 1.68 1.70 1.71 1.71 1.74 1.73 1.73 1.72 1.70 1.71 1.67 1.66 1.65 1.59 1.60 1.60 1.57 1.57 1.59 1.58 1.56
1.35 1.42 1.47 1.50 1.54 1.59 1.62 1.59 1.57 1.57 1.57 1.58 1.61 1.62 1.61 1.62 1.62 1.61 1.63 1.66 1.69 1.70 1.74 1.74 1.76 1.74 1.74 1.71 1.72 1.68 1.70 1.68 1.71 1.67 1.60 1.55 1.58 1.57 1.57 1.57 1.55 1.53
1.32 1.36 1.42 1.44 1.48 1.52 1.53 1.56 1.59 1.58 1.56 1.57 1.58 1.61 1.60 1.61 1.60 1.59 1.59 1.58 1.62 1.65 1.69 1.71 1.70 1.71 1.72 1.72 1.71 1.68 1.67 1.64 1.69 1.69 1.63 1.56 1.55 1.59 1.57 1.56 1.54 1.51
1.25 1.29 1.34 1.41 1.44 1.49 1.50 1.53 1.58 1.60 1.58 1.58 1.62 1.59 1.62 1.61 1.59 1.60 1.61 1.60 1.60 1.62 1.63 1.65 1.64 1.64 1.68 1.69 1.67 1.64 1.64 1.61 1.62 1.61 1.56 1.56 1.55 1.52 1.55 1.53 1.51 1.50
1.26 1.28 1.31 1.36 1.38 1.43 1.45 1.49 1.52 1.55 1.57 1.57 1.54 1.59 1.62 1.61 1.61 1.62 1.64 1.65 1.64 1.64 1.64 1.64 1.64 1.64 1.66 1.64 1.59 1.55 1.54 1.56 1.54 1.52 1.51 1.50 1.52 1.50 1.55 1.58 1.56 1.54
1.28 1.26 1.26 1.26 1.29 1.34 1.37 1.42 1.47 1.52 1.56 1.52 1.52 1.55 1.60 1.61 1.63 1.64 1.64 1.65 1.65 1.67 1.67 1.65 1.64 1.62 1.62 1.58 1.53 1.49 1.45 1.45 1.46 1.45 1.43 1.42 1.42 1.44 1.46 1.52 1.52 1.52
1.25 1.27 1.25 1.24 1.21 1.25 1.28 1.34 1.40 1.43 1.48 1.49 1.51 1.54 1.54 1.60 1.63 1.64 1.65 1.63 1.62 1.64 1.65 1.64 1.62 1.61 1.58 1.55 1.50 1.47 1.43 1.40 1.40 1.38 1.38 1.38 1.39 1.40 1.42 1.46 1.45 1.43
1.29 1.30 1.27 1.24 1.22 1.24 1.24 1.30 1.34 1.36 1.38 1.38 1.44 1.47 1.53 1.56 1.59 1.63 1.62 1.61 1.59 1.59 1.60 1.61 1.61 1.60 1.56 1.53 1.50 1.47 1.42 1.38 1.37 1.36 1.34 1.33 1.33 1.33 1.35 1.36 1.38 1.39
1.37 1.36 1.32 1.29 1.27 1.26 1.25 1.27 1.30 1.32 1.32 1.34 1.37 1.40 1.47 1.52 1.54 1.56 1.55 1.55 1.57 1.60 1.60 1.60 1.61 1.60 1.57 1.53 1.49 1.45 1.40 1.36 1.35 1.33 1.32 1.31 1.30 1.29 1.28 1.29 1.28 1.30
1.42 1.38 1.37 1.34 1.32 1.30 1.31 1.30 1.29 1.29 1.29 1.29 1.34 1.35 1.38 1.41 1.45 1.46 1.49 1.48 1.50 1.53 1.54 1.56 1.56 1.56 1.54 1.51 1.48 1.44 1.38 1.33 1.30 1.29 1.29 1.30 1.29 1.28 1.27 1.26 1.25 1.25
1.54 1.51 1.47 1.44 1.42 1.39 1.35 1.34 1.35 1.33 1.32 1.32 1.32 1.30 1.31 1.33 1.35 1.35 1.38 1.39 1.41 1.43 1.48 1.53 1.53 1.51 1.50 1.49 1.46 1.41 1.37 1.33 1.31 1.27 1.25 1.25 1.26 1.28 1.28 1.26 1.24 1.22
1.72 1.67 1.64 1.57 1.53 1.50 1.47 1.42 1.39 1.37 1.36 1.34 1.31 1.30 1.31 1.32 1.35 1.36 1.37 1.37 1.39 1.39 1.41 1.46 1.46 1.45 1.45 1.44 1.42 1.39 1.37 1.32 1.31 1.28 1.25 1.23 1.22 1.23 1.26 1.26 1.25 1.23
2.01 1.92 1.84 1.78 1.69 1.60 1.56 1.54 1.50 1.45 1.41 1.38 1.35 1.32 1.31 1.31 1.32 1.33 1.34 1.34 1.35 1.37 1.38 1.38 1.38 1.41 1.41 1.39 1.39 1.38 1.38 1.36 1.34 1.31 1.28 1.25 1.21 1.19 1.19 1.21 1.22 1.23
2.14 2.10 2.04 2.00 1.97 1.90 1.85 1.77 1.70 1.65 1.56 1.48 1.43 1.40 1.36 1.34 1.32 1.28 1.29 1.30 1.30 1.31 1.30 1.30 1.31 1.34 1.35 1.34 1.33 1.32 1.31 1.30 1.30 1.30 1.30 1.26 1.22 1.19 1.14 1.17 1.21 1.25
2.12 2.13 2.09 2.10 2.13 2.09 2.06 2.05 2.04 1.98 1.87 1.73 1.61 1.53 1.50 1.47 1.38 1.33 1.31 1.30 1.29 1.29 1.29 1.29 1.31 1.28 1.24 1.24 1.26 1.28 1.29 1.27 1.26 1.23 1.24 1.23 1.21 1.19 1.17 1.16 1.17 1.21
2.13 2.14 2.13 2.13 2.14 2.14 2.15 2.15 2.14 2.12 2.07 1.97 1.87 1.82 1.75 1.64 1.57 1.49 1.41 1.39 1.37 1.34 1.34 1.37 1.38 1.34 1.30 1.26 1.25 1.26 1.28 1.28 1.26 1.24 1.20 1.19 1.20 1.19 1.19 1.17 1.18 1.17
2.06 2.07 2.08 2.10 2.12 2.14 2.14 2.14 2.14 2.12 2.11 2.07 2.01 1.97 1.92 1.86 1.80 1.74 1.65 1.55 1.51 1.47 1.46 1.46 1.43 1.38 1.35 1.32 1.29 1.28 1.27 1.27 1.27 1.25 1.23 1.22 1.23 1.25 1.24 1.22 1.21 1.18
2.00 2.01 2.00 2.01 2.05 2.07 2.06 2.05 2.07 2.09 2.10 2.11 2.07 2.01 2.01 2.00 1.97 1.93 1.88 1.77 1.69 1.66 1.63 1.58 1.49 1.44 1.38 1.33 1.31 1.30 1.29 1.27 1.28 1.28 1.27 1.28 1.31 1.33 1.33 1.32 1.32 1.30
1.86 1.87 1.89 1.93 1.95 1.98 2.01 2.04 2.07 2.09 2.09 2.13 2.13 2.12 2.12 2.12 2.12 2.10 2.00 1.91 1.87 1.83 1.78 1.68 1.62 1.60 1.54 1.47 1.39 1.35 1.32 1.31 1.32 1.32 1.32 1.33 1.35 1.38 1.40 1.42 1.44 1.45
1.73 1.73 1.75 1.79 1.84 1.87 1.90 1.95 2.00 2.06 2.11 2.15 2.11 2.13 2.11 2.11 2.11 2.13 2.13 2.07 2.04 2.02 1.92 1.80 1.77 1.77 1.76 1.73 1.66 1.56 1.46 1.41 1.38 1.38 1.40 1.39 1.40 1.45 1.49 1.51 1.54 1.57
1.67 1.66 1.64 1.69 1.76 1.78 1.80 1.87 1.95 2.04 2.10 2.18 2.10 2.05 2.03 2.05 2.08 2.09 2.12 2.13 2.13 2.12 2.05 1.94 1.88 1.85 1.81 1.79 1.78 1.78 1.72 1.60 1.54 1.54 1.57 1.57 1.56 1.60 1.64 1.65 1.68 1.69
1.55 1.62 1.60 1.64 1.70 1.77 1.84 1.86 1.88 1.90 1.96 2.00 2.02 2.01 1.98 1.99 2.01 2.01 2.07 2.12 2.14 2.11 2.07 1.98 1.91 1.89 1.89 1.88 1.86 1.85 1.87 1.84 1.78 1.75 1.76 1.80 1.76 1.72 1.78 1.81 1.83 1.85
1.40 1.43 1.43 1.42 1.50 1.58 1.66 1.72 1.78 1.80 1.81 1.84 1.85 1.85 1.85 1.87 1.91 1.94 1.94 2.01 2.11 2.09 2.08 2.07 2.02 2.01 2.00 1.98 1.96 1.92 1.91 1.92 1.91 1.86 1.85 1.90 1.91 1.87 1.85 1.92 1.96 1.99
Wind_Speed
12 12 11 10 10 9 9 9 9 9 8 8 8 7 7 8 8 7 7 7 7 7 7 7 7 7 6 6 6 5 5 5 4 4 4 4 3 3 3 3 4 4
13 12 12 11 10 10 9 9 9 9 8 8 8 7 7 8 8 8 7 7 7 7 7 7 7 7 7 7 6 6 6 5 5 5 5 5 4 4 4 4 4 5
13 13 13 12 11 11 10 10 9 9 9 8 8 8 7 8 8 8 8 8 7 7 7 7 7 7 7 7 7 6 6 6 6 6 6 6 5 5 5 5 5 5
14 14 14 13 12 11 11 10 10 10 9 9 9 8 8 8 8 8 8 8 8 7 7 7 7 7 7 7 7 6 6 6 6 6 6 6 6 6 6 5 5 5
15 15 14 14 13 12 12 11 11 10 10 10 9 9 9 9 9 8 8 8 8 8 7 7 7 7 7 7 7 7 6 6 6 6 6 6 6 6 6 6 6 6
16 15 15 14 14 13 13 12 12 11 11 10 10 10 9 9 9 9 9 8 8 8 8 8 7 7 7 7 7 7 6 6 6 6 6 6 6 6 6 6 6 6
16 16 16 15 15 14 14 13 13 12 12 11 11 11 10 10 10 10 9 9 9 9 9 8 8 8 7 7 7 7 7 7 7 7 7 7 7 7 6 6 6 6
17 17 17 16 16 16 15 14 14 13 13 12 12 12 11 11 11 10 10 10 10 10 9 9 9 9 8 8 8 8 7 7 7 7 7 7 7 7 7 6 6 7
17 17 17 17 17 17 16 16 15 14 14 13 13 12 12 12 12 11 11 11 11 11 10 10 10 10 9 9 8 8 8 8 8 8 8 7 7 7 7 7 7 7
18 18 18 18 18 18 18 17 16 16 15 15 14 14 13 13 13 12 12 12 12 11 11 11 11 11 10 10 10 9 9 9 9 9 8 8 8 8 7 7 7 7
18 18 18 18 18 18 18 18 17 17 17 16 16 15 15 14 14 13 13 13 13 13 12 12 12 12 12 11 11 11 10 10 10 10 10 10 9 9 9 8 8 8
18 18 18 18 18 18 18 18 18 18 18 18 17 17 16 16 15 15 14 14 14 14 14 13 13 13 13 12 12 12 12 11 11 11 11 11 11 10 10 10 9 9
19 19 18 18 18 18 19 19 19 19 19 19 18 18 18 17 17 17 16 16 16 15 15 15 14 14 14 13 13 13 13 12 12 12 12 12 11 11 11 11 10 10
19 19 19 19 19 19 19 19 19 19 19 19 19 19 19 19 19 18 18 17 17 17 16 16 15 15 15 15 14 14 14 14 13 13 13 12 12 12 12 11 11 11
20 20 20 20 20 20 20 20 19 20 20 20 20 20 20 20 20 19 19 19 18 18 18 18 17 17 16 16 15 15 15 15 15 14 14 14 13 13 13 13 12 12
21 21 21 21 21 21 21 20 20 20 20 20 21 21 21 21 21 21 21 20 20 19 19 19 19 18 18 17 17 17 16 16 16 16 16 15 15 15 15 14 14 14
22 22 22 22 21 22 22 22 22 21 21 21 21 21 21 21 21 21 21 21 21 21 20 20 20 19 19 19 19 18 18 17 17 17 17 17 17 17 16 16 16 15
22 22 23 23 23 23 23 23 23 23 23 23 22 22 22 22 22 22 22 21 21 21 21 21 20 20 20 20 20 19 19 19 18 18 18 18 18 18 18 18 17 17
21 21 21 22 22 22 22 23 23 23 23 23 23 23 23 23 23 23 22 22 22 21 21 21 21 20 20 20 20 20 20 20 20 19 19 19 19 19 19 19 19 18
17 18 18 19 20 20 20 21 22 23 23 23 23 24 24 24 24 24 23 23 23 22 22 22 21 21 21 21 21 21 21 21 21 20 20 20 20 20 20 20 20 20
13 14 15 15 16 16 17 18 19 21 23 23 23 24 23 23 23 23 24 24 24 23 23 22 22 22 22 22 22 22 22 22 22 21 21 21 21 21 21 21 21 21
11 12 12 12 12 12 13 14 15 16 19 21 22 23 22 21 22 22 23 23 23 24 23 23 22 22 22 22 23 23 23 23 23 23 22 22 22 22 22 22 22 22
11 11 11 11 11 11 11 12 12 12 13 15 17 19 19 19 20 20 21 21 22 22 22 22 22 22 22 22 23 23 23 23 23 23 23 23 23 23 23 23 22 22
10 10 10 10 11 10 10 10 10 10 11 11 12 14 16 17 18 18 18 19 20 21 21 21 22 21 21 21 21 22 22 23 23 23 23 23 24 24 24 24 24 23
11 11 11 11 11 11 10 10 10 10 10 10 10 11 12 14 15 16 16 17 18 19 20 20 21 21 21 21 21 21 22 22 23 23 24 24 24 24 24 24 24 24
13 12 12 12 12 12 11 11 10 10 10 10 10 10 10 11 12 13 14 14 15 15 16 18 19 20 20 21 22 22 22 22 22 23 23 23 23 24 24 24 24 24
Wind_Direction
190 189 187 184 185 185 184 185 185 184 183 183 185 186 186 187 187 188 189 189 190 191 193 195 197 198 200 203 205 209 213 215 217 217 219 221 219 217 218 220 223 227
195 194 193 191 190 190 190 191 191 190 188 188 189 189 190 192 193 195 196 196 198 199 201 203 205 207 211 214 216 219 222 226 229 230 232 234 233 231 233 235 235 236
200 199 198 198 197 195 195 196 196 196 195 194 193 193 194 196 198 199 201 202 203 204 206 208 211 214 218 221 222 224 227 231 234 236 238 239 239 239 240 241 242 243
204 204 203 203 202 200 200 200 199 200 200 200 199 199 199 200 201 203 204 205 206 208 209 212 215 218 222 224 226 228 231 235 237 238 240 241 242 243 243 244 246 248
207 207 207 207 206 205 204 204 204 204 204 205 204 204 204 204 205 207 209 210 211 212 214 216 219 222 224 227 229 232 235 237 239 240 242 243 243 245 246 247 249 252
210 210 210 210 210 209 208 208 209 209 208 209 208 208 209 208 210 212 214 215 216 217 218 220 222 224 227 229 232 235 238 240 242 244 245 245 245 247 248 251 253 254
213 213 213 213 213 213 213 213 213 214 214 213 213 213 214 214 216 217 219 220 221 222 223 225 225 226 229 232 235 238 240 243 245 246 247 248 249 250 251 253 256 258
216 216 216 216 217 217 217 217 218 218 218 218 218 218 218 220 221 222 223 225 226 227 228 228 228 228 231 235 239 241 243 244 246 248 250 252 252 254 255 256 259 261
218 218 219 219 220 220 220 221 222 222 222 223 223 223 222 223 225 226 227 228 230 231 231 231 231 231 234 237 240 242 244 245 247 248 251 253 254 256 257 258 260 263
219 220 221 221 222 223 223 224 225 226 226 227 227 226 226 226 227 228 230 231 233 234 234 235 234 234 236 239 241 243 245 247 248 249 251 253 255 257 258 260 261 264
221 221 223 224 225 226 226 227 228 228 229 229 230 230 230 230 230 231 233 234 235 237 237 238 238 238 239 241 244 246 247 249 250 252 253 254 255 257 258 259 261 263
225 225 225 226 227 228 229 230 230 230 231 231 232 232 233 234 234 235 236 237 238 240 240 241 241 242 243 244 246 248 249 251 253 253 255 255 256 257 258 259 260 262
228 228 228 228 228 230 231 232 232 232 232 232 233 234 235 237 238 239 240 240 241 242 242 243 243 244 245 246 247 249 250 252 254 255 255 256 257 258 258 259 260 262
230 230 230 230 230 231 231 232 234 234 235 235 235 236 237 238 240 241 242 242 243 243 243 244 244 245 246 247 248 250 252 253 255 256 256 257 258 258 259 260 261 262
231 232 232 233 233 233 233 233 234 235 237 237 238 238 239 239 240 242 243 243 243 244 244 244 245 246 246 247 249 252 253 255 256 257 258 258 259 260 260 261 262 263
233 233 234 235 235 236 236 236 236 236 237 238 239 240 241 241 242 242 243 244 244 244 245 245 247 248 247 247 248 251 254 256 258 259 260 261 261 262 262 262 263 263
235 235 235 236 237 238 238 238 238 239 239 239 240 240 241 242 243 243 243 244 245 245 246 246 247 248 248 247 248 250 252 255 257 259 261 262 262 262 263 263 263 264
235 237 237 238 239 240 241 240 240 241 242 242 241 241 242 242 243 243 243 244 245 245 247 247 247 248 249 249 249 249 251 253 255 257 259 261 262 263 264 264 265 266
234 235 236 237 238 240 242 241 240 241 242 243 243 243 243 243 243 244 243 244 244 245 247 248 248 250 250 250 249 249 250 252 255 256 258 259 261 262 264 265 266 267
228 230 233 235 237 239 241 242 241 241 242 242 242 242 243 243 244 244 244 244 245 246 247 248 249 251 252 251 251 250 250 252 255 256 258 259 260 262 263 264 266 267
223 227 229 232 234 236 239 241 241 242 242 242 241 241 242 243 244 245 245 245 246 246 247 248 251 253 254 253 253 252 251 253 255 256 257 258 260 261 262 264 265 266
221 224 225 227 230 233 236 239 241 242 242 242 240 240 241 243 244 245 246 245 245 245 246 248 251 254 255 255 255 254 253 254 255 256 257 258 259 261 262 263 264 265
223 225 226 229 233 235 236 240 243 244 242 240 238 237 237 240 242 244 245 245 245 244 245 247 250 253 255 255 256 256 255 255 255 256 257 258 259 260 262 263 264 265
227 228 229 232 235 236 236 237 239 240 239 237 234 233 234 238 241 244 246 246 246 246 247 248 249 252 254 255 256 257 256 255 255 255 256 257 258 259 261 262 263 264
230 231 232 233 234 234 235 235 234 235 236 235 233 232 234 238 241 243 245 247 248 249 249 249 250 252 254 256 257 258 258 257 256 256 257 258 259 260 260 261 262 263
232 233 233 233 233 232 233 233 232 232 234 234 235 235 237 238 239 239 242 246 249 251 251 250 251 253 255 257 258 260 260 259 258 257 258 258 259 261 262 262 263 263